Regional Weather Roundup
Issued by NWS Wakefield, VA

Home | Current Version | Previous Version | Graphics & Text | Print | Product List | Glossary On
Versions: 1 2 3 4 5 6 7 8 9 10 11 12 13 14 15 16 17 18 19 20 21 22 23 24 25 26 27 28 29 30 31 32 33 34 35 36 37 38 39 40 41 42 43 44 45 46 47 48 49 50
000
ASUS41 KAKQ 271214
RWRAKQ

REGIONAL WEATHER ROUNDUP
NATIONAL WEATHER SERVICE WAKEFIELD VA
800 AM EDT FRI MAR 27 2015

Note: "fair" indicates few or no clouds below 12,000 feet with no
significant weather and/or obstructions to visibility. * = Denotes
station may not report precipitation (e.g., rain,snow,etc.),
thunder or fog.

VAZ042-051-052>054-056-271300-
NORTHERN VIRGINIA

CITY           SKY/WX    TMP DP  RH WIND       PRES   REMARKS
WASH NATIONAL  LGT RAIN  45  40  82 N12       29.81R
DULLES         CLOUDY    43  36  75 N10       29.80R
FORT BELVOIR   LGT RAIN  41  39  93 VRB2      29.81R
QUANTICO       LGT RAIN  43  38  82 NE8       29.82R
FREDERICKSBRG* LGT RAIN  42  42 100 N5        29.81R
STAFFORD*      RAIN      40  50 100 N3        29.84R
WARRENTON      LGT RAIN  43  42  98 N8        29.80S
CULPEPER*      LGT RAIN  43  41  93 N6        29.81S
MANASSAS*      NOT AVBL
LEESBURG*      CLOUDY    43  39  87 N6        29.81F
WINCHESTER     CLOUDY    41  32  70 N6        29.80F
FRONT ROYAL*   CLOUDY    41  37  87 CALM      29.80S
LURAY*         DRIZZLE   43  41  93 N7        29.80R
$$

VAZ048-049-060>072-079>083-271300-
CENTRAL AND SOUTH CENTRAL VIRGINIA

CITY           SKY/WX    TMP DP  RH WIND       PRES   REMARKS
RICHMOND       LGT RAIN  45  40  82 N9        29.79R
CHESTERFIELD*  CLOUDY    45  32  61 N8        29.80R
PETERSBURG*    LGT RAIN  47  42  82 N10       29.79R
HANOVER        LGT RAIN  43  41  93 VRB6      29.81R FOG
TAPPAHANNOCK*  CLOUDY    45  37  74 N7G18     29.79R
QUINTON*       CLOUDY    45  41  87 N7        29.78R
CHARLOTTSVILLE LGT RAIN  43  39  86 E5        29.79R
GORDONSVILLE*  CLOUDY    41  39  92 NE5       29.80R
ORANGE*        LGT RAIN  43  39  87 N7        29.81S
LOUISA*        LGT RAIN  43  39  87 N3        29.79R
BUMPASS*       CLOUDY    41  39  91 N5        29.79R
FARMVILLE*     DRIZZLE   46  46 100 N10       29.77S
CREWE*         CLOUDY    44  42  92 MISG      29.77S
FORT PICKETT*  CLOUDY    43  42  96 N12G17    29.77R
CHASE CITY*    CLOUDY    46  46 100 N7        29.76R
CLARKSVILLE*   CLOUDY    45  43  93 N8        29.75R
SOUTH HILL*    CLOUDY    44  42  93 N6        29.82R
LAWRENCEVILLE* CLOUDY    46  42  85 N6        29.75R
EMPORIA*       DRIZZLE   46  41  81 N7        29.77R
$$

VAZ088>098-271300-
SOUTHEAST VIRGINIA

CITY           SKY/WX    TMP DP  RH WIND       PRES   REMARKS
NORFOLK        CLOUDY    46  42  86 N21G29    29.75R
VIRGINIA BEACH LGT RAIN  48  42  80 N16       29.74R
NORFOLK NAVAL  CLOUDY    50  42  74 N23G30    29.78R
WEST POINT*    CLOUDY    49  40  71 N10G17    29.79R
SALUDA*        CLOUDY    46  41  82 N12G18    29.78R
NEWPORT NEWS   CLOUDY    51  41  68 N9        29.76
LANGLEY AFB    CLOUDY    48  43  83 NE13G18   29.75R
FORT EUSTIS    CLOUDY    49  41  75 NE7       29.74R
WILLIAMSBURG*  CLOUDY    52  45  76 NE7       29.78R
HR EXEC AP*    CLOUDY    48  43  81 NE8       29.76R
FRANKLIN*      CLOUDY    48  42  79 N13G23    29.76R
WAKEFIELD      LGT RAIN  48  41  76 N9G18     29.75R
$$

VAZ020-022-025-037-045-271300-
WEST CENTRAL AND SOUTHWEST VIRGINIA

CITY           SKY/WX    TMP DP  RH WIND       PRES   REMARKS
STAUNTON*      LGT RAIN  42  39  90 N5        29.79S
WAYNESBORO*    CLOUDY    39  38  97 N3        29.76F
HOT SPRINGS VA SNOW      32  32 100 NW10G17   29.69F VSB<1/4 WCI  24
LYNCHBURG      LGT RAIN  42  40  92 N6        29.78S
DANVILLE       RAIN      48  46  93 N7        29.76R FOG
SOUTH BOSTON*  CLOUDY    46  44  93 NE6       29.76S
MARTINSVILLE   DRIZZLE   44  44 100 N5        29.80R
ROANOKE        CLOUDY    43  37  79 N6        29.80R
BLACKSBURG     CLOUDY    38  35  91 CALM      29.80R
DUBLIN*        LGT RAIN  39  36  89 N8        29.77F
MARION*        CLOUDY    38  35  87 W6        29.80R
HILLSVILLE*    LGT SNOW  36  34  94 N9        29.74S
RICHLANDS*     LGT SNOW  34  32  93 N8        29.80R
WISE*          MIX PCPN  34  34 100 N12       29.82S VSB 1
ABINGDON*      CLOUDY    40  37  87 N7        29.81R
$$

MDZ021>025-VAZ099-100-271300-
SOUTHERN MARYLAND AND THE DELMARVA PENINSULA

CITY           SKY/WX    TMP DP  RH WIND       PRES   REMARKS
PATUXENT RIVER LGT RAIN  42  38  85 N16G23    29.78R
BAY BRIDGE APT DRIZZLE   39  37  93 N5        29.81R
LEONARDTOWN    CLOUDY    43  37  81 N5        29.80R
DOVER          LGT RAIN  41  41 100 N14       29.78R
GEORGETOWN     CLOUDY    43  39  86 N7        29.77R
EASTON         DRIZZLE   43  43 100 N9        29.82R
CAMBRIDGE      CLOUDY    43  37  81 N14       29.77R
SALISBURY      CLOUDY    43  40  89 N12       29.76R
OCEAN CITY     CLOUDY    44  39  82 N16G26    29.74S
WALLOPS ISLAND CLOUDY    45  42  89 NE10      29.75R
ACCOMACK*      CLOUDY    45  39  81 N10G20    29.75R
$$

NCZ012>017-030>032-271300-
NORTH CENTRAL AND EASTERN NORTH CAROLINA

CITY           SKY/WX    TMP DP  RH WIND       PRES   REMARKS
ROANOKE RAPIDS CLOUDY    46  39  76 N12G24    29.73R
RALEIGH        CLOUDY    51  44  77 N12G17    29.73R
ELIZABETH CITY RAIN      46  45  93 N18G25    29.72R FOG
AHOSKIE*       CLOUDY    50  44  80 N16G22    29.73R
EDENTON*       DRIZZLE   59  57  92 NE20      29.69R
CURRITUCK*     RAIN      47  44  88 N16       29.74R
KILL DEVIL HLS RAIN      45  44  95 N8G22     29.70R
MANTEO         LGT RAIN  47  46  96 N21G31    29.71R
CAPE HATTERAS  LGT RAIN  61  59  93 W9        29.66F
TARBORO*       CLOUDY    53  47  78 N12G18    29.71R
GOLDSBORO      PTSUNNY   62  61  99 SW3       29.64R
WASHINGTON     CLOUDY    61  59  94 S3        29.66R
GREENVILLE     CLOUDY    61  61 100 SW3       29.68S
NEW BERN       LGT RAIN  62  60  93 SW5       29.68S
WILMINGTON     CLOUDY    63  61  93 SW6       29.67F
$$

VAZ048-271300-
ELSEWHERE

CITY           SKY/WX    TMP DP  RH WIND       PRES   REMARKS
HARRISBURG PA  CLOUDY    41  36  82 N5        29.80R
BALTIMORE      LGT RAIN  41  38  89 NW3       29.80R
ANNAPOLIS      CLOUDY    41  38  89 N5        29.80R
ANDREWS AFB    LGT RAIN  41  39  93 N7        29.79S
PHILADELPHIA   CLOUDY    39  35  86 N8        29.79F
HENDERSON NC   DRIZZLE   46  42  88 N9        29.75R
GREENSBORO     LGT RAIN  45  42  89 N9G17     29.74R
ROCKY MOUNT    CLOUDY    53  46  77 N18G28    29.71R
$$

VAZ100-271300-
MARINE

STATION/POSITION TIME  TEMP    WIND        PRES    WAVE   SWELL
                       AIR SEA DIR/SP/G            HT/PER HT/PER
                 (UTC) (F)     (DEG/KT/KT) (MB)    (FT/S) (FT/S)
BRANDYWINE LGT   1100   41 40  350/ 18/ 20 1007.7R
CAPE MAY NJ      1100   43 43  350/  5/ 12 1007.3R
LEWES DE         1100   42 43  350/ 19/ 23 1007.7R
15NM E FENWICK I 1150   41 40              1007.0R   7/10
OCEAN-CITY-INLET 1100   45 40   10/ 21/ 27 1006.7R
WACHAPREAGUE VA  1100   47 52   10/  7/ 17 1006.4R
THOMAS POINT MD  1200                        N/A
COVE POINT MD    1100   41      20/ 16/ 18 1007.9R
SOLOMONS ISLAND  1100      43                N/A
BISHOPS HEAD MD  1112          360/  9/ 14   N/A
PINEY POINT MD   1106           20/ 12/ 15   N/A
CAMBRIDGE MD     1100   44 45  360/ 15/ 18 1007.9R
LEWISETTA VA     1100   45 42              1007.7R
RAPPAHANNOCK LGT 1100          360/ 21/ 23 1007.4R
STINGRAY PT      1200   44 44   10/ 21/ 25   N/A     3/ 3
YORK RVR RNG VA  1100   48      20/ 21/ 24 1005.8R
YORKTOWN VA      1100   49 47   10/ 16/ 19 1006.6R
DOMINION TERM VA 1100   50      20/  3/  8 1006.8R
KIPTOPEKE VA     1100      49   10/ 16/ 23   N/A
CHES BAY BRIDGE  1100   45 45  350/ 28/ 33 1006.2R
CAPE HENRY VA    1100   45     350/ 24/ 29 1005.1R
CHESAPEAKE LGHT  1100   45     360/ 22/ 24 1006.3R
WILLOUBY STN VA  1100   48      10/ 15/ 17 1007.4R
S CRANEY ISL VA  1100           20/ 18/ 25 1006.7R
CAPE HENRY BUOY  1128      43                N/A     5/ 4   2/11
1ST LANDING BUOY 1200   45     360/ 19/ 21 1007.0R   3/ 3
OFFSHORE WE BUOY 1111      41                N/A     6/10   5/10
64NM E OF VA BCH 1150   50 51   10/ 21/ 25 1004.5R   8/ 9   7/ 9
DUCK PIER NC     1100      40   10/ 23/ 27 1004.5R
44056 DUCK FRF   1111      42                N/A     4/ 9   2/11
OREGON INLET NC  1100   59 59  230/  9/ 10 1004.7R
HATTERAS NC      1100   63 60  260/  8/ 10 1005.4F
CAPE LOOKOUT NC  1200   60     280/  6/  7 1004.6F
$$



USA.gov is the U.S. government's official web portal to all federal, state and local government web resources and services.